Powrót do katalogu

QIANFAN-227

AktywnyŁącznośćPO
NORAD 69856·PAYLOAD·🇨🇳 China

Wystrzelony Jul 5, 2026 z Wenchang Space Launch Site

Loading…

Następne Przeloty (najbliższe 24 godziny)

TLE

ŚwieżeSource: Space-Track

Epoka: Sep 14, 2026, 21:03 UTC

1 69856U 26155J   26257.87755751 -.01843787  00000-0 -31393+1 0  9999
2 69856  89.0073  54.2926 0038545  27.0925 333.2226 13.49074381  9966

Śledź QIANFAN-227 w czasie rzeczywistym z AllMySat

Download on the App Store